Theta_e
306 307 308 306 307 296 300 301 298 301 312 312 307 307 305 308 306 303 315 312 314 319 319 324 329 330 329 329 331 333 334 335 336 335 336 337 338 339 340 336 335 338 340 341 341 343 344 345 346 347 350 352 353 354 354 355 357 357 357 359 359 360 360
305 305 308 308 307 308 302 297 302 308 309 309 305 298 303 303 299 302 310 307 310 308 307 323 327 327 329 330 330 332 334 335 334 335 336 337 340 341 342 339 339 340 341 341 342 343 343 344 345 347 351 352 354 354 354 354 356 355 356 357 357 358 359
304 305 306 305 306 308 305 303 309 301 297 296 305 303 296 297 296 300 305 308 309 311 312 319 322 324 326 329 332 332 332 333 334 335 337 338 340 341 342 342 338 339 340 341 343 343 343 346 348 348 350 351 353 353 353 353 354 354 355 355 356 358 359
302 305 305 299 302 306 305 307 304 306 304 302 299 300 304 303 297 299 302 305 305 314 316 318 320 324 326 328 330 331 333 334 334 336 337 337 339 341 343 342 340 340 342 343 344 344 345 346 348 349 350 350 350 352 353 353 354 355 356 355 356 356 357
301 300 303 302 304 301 302 303 302 302 304 306 306 304 303 300 301 300 300 300 307 315 320 321 322 324 329 330 330 332 333 335 336 337 337 339 341 341 341 342 343 342 341 341 342 345 347 349 349 347 348 350 350 351 352 353 353 352 353 354 355 357 357
299 301 303 301 303 306 305 303 302 303 301 300 296 296 304 306 303 298 300 298 311 317 323 325 325 328 330 331 331 331 333 335 337 338 339 341 341 341 341 341 342 343 344 344 342 344 347 347 348 347 348 351 351 352 352 353 354 354 353 353 355 356 358
300 302 304 304 303 303 303 305 304 306 305 306 300 293 299 307 308 308 308 303 308 320 325 326 328 330 331 332 333 332 334 335 336 339 340 342 342 340 340 341 342 346 348 347 346 347 347 347 348 351 351 351 350 352 353 354 353 354 352 353 357 359 358
303 304 303 303 302 302 302 302 301 302 302 304 303 302 307 303 307 305 305 301 310 318 326 327 329 331 331 332 333 332 333 336 337 338 339 340 340 341 341 341 342 344 347 346 344 347 348 349 348 347 349 352 352 352 354 354 354 354 354 356 358 359 359
297 299 302 301 304 304 301 299 301 300 301 302 306 309 311 305 308 308 303 297 309 319 325 328 329 329 329 329 333 335 334 335 336 338 340 340 340 340 342 344 344 344 344 344 344 343 345 349 350 350 350 347 348 353 354 353 355 356 356 358 358 358 358
289 289 291 292 296 297 300 301 300 302 303 307 306 301 306 297 308 307 305 306 313 320 323 325 327 326 328 330 331 334 334 333 334 336 337 338 338 338 341 341 343 345 346 346 348 346 345 347 349 350 350 351 351 355 356 357 355 357 358 359 356 355 358
293 294 296 299 301 300 298 299 303 305 303 304 304 311 305 298 308 307 309 313 313 314 319 321 323 325 324 324 327 328 329 331 333 334 335 336 337 338 340 342 343 343 343 343 345 346 346 346 346 348 351 352 352 352 352 353 355 358 359 358 357 356 357
298 299 298 299 300 296 297 298 300 305 308 306 305 304 301 315 307 303 311 316 313 313 319 321 322 325 324 325 325 327 329 330 331 332 333 334 335 337 339 339 339 340 341 343 344 346 345 346 348 348 349 351 352 352 352 352 353 357 355 353 353 355 357
299 300 300 300 298 297 297 300 302 303 308 309 304 307 305 312 304 300 313 317 315 317 319 323 323 324 323 324 326 329 330 331 331 331 331 331 332 334 334 335 336 338 339 341 343 344 345 346 347 347 348 349 351 352 352 352 354 354 356 355 354 355 356
300 301 301 301 299 297 298 300 303 305 307 311 311 310 311 310 309 310 315 317 318 320 321 323 324 327 326 326 328 329 329 329 329 329 330 330 331 332 333 334 335 337 339 341 341 342 343 344 345 345 346 348 349 350 351 351 352 354 355 353 352 351 349
298 300 302 302 300 298 299 301 305 307 305 308 310 312 312 314 313 314 316 317 316 323 326 324 326 326 326 325 325 326 328 329 329 329 329 330 331 332 333 334 335 336 336 337 337 337 337 339 340 341 344 345 345 346 348 351 352 353 352 349 349 348 346
297 301 300 301 301 299 300 300 304 306 303 303 308 310 312 311 311 313 315 314 314 322 325 325 324 323 323 322 324 325 327 329 328 326 328 329 330 331 331 332 333 332 332 333 333 333 333 334 335 336 337 337 337 337 339 341 345 348 349 348 346 346 347
299 301 300 300 300 298 297 297 303 305 307 305 308 313 314 315 316 312 311 313 320 322 324 322 321 322 322 324 325 326 326 327 327 328 328 329 329 329 330 330 330 330 330 330 331 330 330 330 330 332 333 332 331 333 333 334 338 343 344 344 343 344 346
300 298 299 302 297 290 290 300 304 306 308 309 308 308 311 314 315 314 318 320 322 321 321 320 319 319 321 323 323 325 325 326 327 327 328 329 329 329 329 329 329 329 330 329 327 327 328 328 328 329 330 330 330 331 332 333 333 334 334 333 334 335 336
297 301 299 295 288 290 300 301 302 309 309 311 312 312 313 313 317 316 317 320 320 321 322 321 320 319 319 321 320 322 326 329 327 325 325 325 325 325 326 326 327 327 327 327 327 328 330 329 328 327 326 328 328 328 329 329 331 331 332 332 333 334 333
298 297 298 286 289 299 303 302 302 307 305 303 310 311 313 314 315 318 317 320 320 319 320 320 319 318 318 318 319 321 326 328 326 325 324 325 325 325 326 326 326 325 326 326 326 326 328 329 328 325 324 324 324 324 327 327 328 328 329 328 329 330 329
293 296 295 294 301 297 299 298 300 301 301 302 306 305 310 313 316 319 319 318 318 317 316 317 317 317 318 317 316 316 318 320 325 326 325 326 325 326 327 326 326 328 328 327 327 326 324 324 324 324 323 323 323 322 323 324 326 326 327 327 328 329 329
297 295 293 294 293 290 295 299 304 306 305 303 305 309 308 314 318 321 320 317 316 315 315 315 316 318 315 313 313 314 315 318 320 323 324 325 326 325 325 326 326 326 326 325 323 321 321 321 322 324 325 324 323 323 323 325 325 325 325 325 326 327 326
294 294 292 291 289 294 299 302 304 306 307 305 305 303 299 312 318 321 320 317 316 315 314 315 317 316 312 312 314 314 315 319 323 322 324 324 324 325 325 325 324 324 324 323 322 322 321 320 322 323 323 322 320 320 320 321 323 323 323 324 324 325 325
295 294 291 290 295 295 301 304 305 307 308 304 305 294 295 313 317 321 322 317 315 315 316 317 317 316 311 312 315 313 315 317 319 320 321 321 322 323 324 325 325 325 325 323 321 320 320 321 322 323 321 321 322 320 318 318 318 319 321 323 324 325 325
294 294 292 294 297 303 305 305 307 307 307 303 296 291 302 315 317 319 320 318 317 318 318 321 317 317 322 320 318 316 317 318 317 318 320 320 321 321 321 322 324 322 322 321 320 320 321 322 321 321 321 320 320 321 321 320 319 320 322 324 325 325 325
292 292 291 292 296 300 305 308 308 309 301 295 294 304 305 309 316 319 321 318 318 318 317 318 318 320 320 316 315 317 316 317 318 319 319 319 319 321 322 322 321 320 319 319 319 319 320 320 321 321 321 321 321 320 319 318 320 323 324 324 325 326 326
292 293 291 290 287 302 307 306 307 309 301 301 307 307 310 311 316 317 318 319 318 318 317 316 315 317 318 316 313 315 315 315 316 316 317 318 318 319 319 319 320 318 317 317 317 318 319 320 320 320 320 320 319 319 318 320 320 322 322 323 324 324 325
292 289 288 289 300 305 308 306 303 306 308 309 310 309 309 314 317 317 317 317 319 319 317 314 314 316 315 314 314 315 316 317 318 318 317 317 317 317 317 318 317 318 316 316 316 317 318 320 321 322 321 319 319 318 318 322 321 321 322 322 323 321 322
297 295 299 304 306 306 308 307 308 308 309 310 310 309 309 313 317 317 316 315 317 318 317 316 315 314 316 315 315 314 313 314 316 316 316 316 316 316 317 319 318 317 316 315 315 316 318 319 320 321 320 318 317 317 319 321 321 321 320 321 321 320 320
303 303 304 306 307 308 309 310 309 308 309 310 310 309 311 312 316 317 316 316 314 314 314 312 311 312 312 311 311 311 313 313 314 315 314 314 315 316 317 317 318 317 316 316 315 314 315 316 317 319 318 318 316 317 319 320 320 320 320 320 320 320 319
296 293 306 306 306 307 308 309 312 313 311 309 309 310 311 314 316 316 317 316 315 318 317 314 312 313 315 314 312 312 313 313 312 313 314 315 314 314 315 317 317 316 315 314 314 314 313 314 314 314 315 315 317 319 319 317 318 320 319 318 318 319 319
298 300 305 306 307 308 309 309 309 309 310 310 310 310 312 314 316 317 316 317 316 319 317 315 314 314 314 313 311 311 313 313 314 313 313 313 314 316 316 317 318 318 317 316 314 314 313 313 314 313 313 313 315 316 315 315 317 318 318 317 316 317 317
303 305 306 307 308 308 309 310 311 311 311 311 310 311 312 313 314 314 315 316 316 316 317 316 315 314 313 312 311 310 311 312 312 313 311 312 314 315 315 317 318 318 318 316 316 314 314 315 315 315 314 313 313 313 313 315 316 316 315 316 317 316 317
299 300 304 307 302 303 306 308 310 312 312 314 312 311 310 311 311 312 312 312 315 316 315 316 314 313 312 313 313 310 309 310 311 313 312 312 312 313 316 317 318 318 318 317 315 315 314 315 315 315 314 315 315 313 313 314 314 313 315 315 315 316 317
299 305 307 310 310 309 309 309 311 313 314 315 314 313 312 311 311 312 311 310 312 314 314 315 315 315 313 313 314 312 310 310 311 312 312 311 312 313 315 315 316 316 316 317 316 315 315 316 315 315 314 314 314 314 314 314 313 313 313 313 314 315 316
309 310 309 310 311 308 309 310 312 313 315 315 315 316 316 314 312 313 312 311 311 311 312 313 314 315 315 315 314 313 312 312 313 313 313 313 313 314 315 316 316 316 315 315 315 314 315 315 314 314 313 313 313 313 313 313 313 313 312 312 312 313 314
308 313 312 311 312 311 312 313 313 313 314 315 313 314 315 316 315 316 314 313 312 313 312 312 312 313 314 315 315 315 314 313 314 313 314 314 313 313 313 315 315 316 315 315 315 315 315 314 314 313 312 312 313 312 313 312 312 311 311 311 311 313 314
Wind_Speed
8 11 7 6 7 7 7 7 9 5 2 5 5 3 3 3 1 4 3 5 3 1 4 1 3 3 4 4 8 10 11 13 14 14 14 14 12 11 10 11 11 12 12 13 13 13 13 13 13 13 13 13 14 13 13 14 13 12 13 13 12 11 10
5 3 3 5 5 3 7 8 6 5 1 4 2 4 3 4 5 3 4 8 3 2 3 2 5 5 5 4 8 9 10 13 15 14 14 13 12 12 13 10 8 11 12 14 12 12 14 15 16 15 14 14 12 12 14 14 13 13 13 12 12 11 11
3 1 5 3 1 3 4 2 12 10 5 9 1 2 5 5 5 3 4 5 6 4 3 2 4 3 3 3 4 8 10 12 14 13 15 14 15 12 11 9 9 9 10 12 11 13 14 13 13 13 12 12 10 11 12 13 15 15 15 12 12 10 11
3 2 7 9 7 3 2 2 7 3 3 5 7 5 1 3 3 3 4 2 5 5 0 1 2 2 1 2 3 5 8 10 11 12 13 14 13 10 8 7 6 5 5 6 9 10 10 10 9 8 9 9 10 10 10 11 11 10 11 12 12 12 12
2 6 5 8 9 7 6 7 6 4 1 3 1 2 2 3 3 6 4 5 4 2 1 2 1 0 0 3 4 4 4 4 6 9 10 10 10 10 10 9 9 9 9 9 11 10 9 8 8 8 9 10 10 9 10 10 10 11 12 12 11 10 10
4 1 3 4 3 4 8 8 8 7 5 7 9 7 2 1 4 2 6 6 3 3 2 2 2 3 3 2 4 4 4 4 4 5 8 10 11 11 12 11 11 10 10 11 11 10 9 9 10 11 10 10 10 11 10 10 9 9 10 11 10 10 9
3 4 2 1 2 1 3 3 7 6 4 5 8 8 6 2 0 2 2 3 2 3 3 4 2 3 4 3 5 5 5 5 6 6 8 9 11 12 11 11 9 7 7 7 7 9 10 10 9 8 6 8 9 11 10 10 10 11 11 9 8 8 8
3 2 2 5 3 2 5 6 4 1 7 4 6 5 6 8 5 4 3 4 2 2 2 4 2 4 5 4 5 6 6 6 7 8 9 10 11 11 11 10 9 8 7 6 7 7 8 8 9 10 8 5 5 7 8 9 11 12 11 9 8 7 8
2 4 3 4 3 2 5 3 4 4 3 0 2 5 1 5 5 2 6 8 3 4 3 3 5 7 6 5 5 6 6 6 7 8 8 9 10 11 9 9 9 9 9 9 8 8 7 6 8 9 11 11 11 9 10 10 9 10 9 8 7 8 9
6 7 5 1 4 7 6 1 6 5 3 3 5 6 3 4 3 1 4 1 2 6 4 7 8 6 7 6 6 6 5 5 6 6 8 8 9 8 8 8 7 7 6 5 5 6 4 5 6 7 8 7 6 5 6 5 7 7 6 5 5 7 7
5 3 2 2 3 5 3 7 7 8 3 4 3 2 5 9 5 6 1 2 9 9 9 11 10 7 8 7 6 6 6 5 6 6 6 7 6 7 7 7 5 5 5 7 8 7 5 5 4 3 4 5 7 6 10 9 6 6 6 7 6 7 7
8 4 3 4 1 4 5 8 9 8 6 4 3 7 6 7 6 5 3 7 11 11 11 11 12 10 9 7 7 6 6 6 6 5 5 5 5 4 3 3 3 4 3 3 4 5 6 5 5 5 5 6 6 5 7 6 4 5 5 7 7 7 6
7 5 5 5 4 3 3 7 11 12 8 5 4 3 3 3 7 5 10 12 10 12 13 12 11 9 9 9 8 7 7 6 6 7 6 5 5 4 5 5 5 4 3 3 4 5 5 7 8 8 7 6 5 6 5 5 5 7 8 7 8 8 7
6 4 4 4 7 3 3 11 12 12 11 8 6 6 5 6 3 2 12 11 7 10 12 12 11 9 11 9 8 7 8 8 8 8 7 7 7 6 6 6 7 6 5 5 5 6 6 5 6 7 7 7 7 8 8 8 8 9 9 8 8 8 5
4 4 7 9 6 2 7 13 15 15 10 6 8 4 4 6 7 7 12 10 10 7 11 10 10 9 10 9 9 9 8 9 10 9 9 9 9 9 10 10 10 10 10 10 10 10 9 8 7 5 4 4 5 5 1 4 6 8 9 9 9 9 9
2 4 8 9 6 3 5 13 16 16 12 7 6 5 5 4 4 8 9 9 8 10 12 11 10 9 11 11 10 8 8 9 9 9 9 10 10 12 12 13 14 14 14 14 12 10 9 10 11 12 11 11 10 8 6 5 1 5 5 6 5 5 8
1 2 5 5 8 7 3 9 8 7 5 4 3 2 6 3 5 9 6 4 6 13 13 13 11 11 11 11 10 9 9 8 9 10 9 10 11 12 13 14 14 14 14 12 11 11 10 9 10 10 10 12 11 9 10 8 9 7 6 6 6 5 5
1 6 6 6 6 2 3 2 2 1 6 6 6 3 5 4 4 2 5 3 10 13 12 14 13 12 10 8 5 4 8 10 10 10 10 11 12 13 14 14 14 14 11 11 11 11 11 11 12 10 10 12 10 9 8 9 10 8 9 9 8 8 8
1 3 1 2 5 3 4 1 3 4 5 4 6 4 4 4 4 3 4 8 12 13 12 14 13 8 7 6 6 7 7 9 10 11 10 10 12 13 13 14 13 12 12 12 12 10 8 8 11 11 10 11 11 10 10 10 9 10 10 10 9 8 9
2 1 3 4 4 2 2 3 2 1 1 2 4 3 5 4 2 3 6 11 11 12 13 13 10 10 10 8 6 4 5 8 10 11 9 10 12 12 12 15 13 12 11 11 11 11 8 8 9 9 9 10 12 11 11 11 9 10 10 10 9 9 10
2 2 5 1 4 1 4 1 3 5 4 3 2 2 2 2 1 3 8 9 10 11 11 12 12 12 10 8 4 3 3 5 7 10 10 10 11 12 12 13 13 12 11 11 11 10 9 9 8 8 9 9 10 11 11 11 11 10 9 9 9 9 9
1 2 4 3 4 8 4 1 2 0 5 5 4 1 2 3 3 5 11 10 9 10 11 13 14 13 11 7 5 2 3 5 8 9 11 10 11 11 11 11 11 11 11 11 11 11 12 11 9 9 9 10 11 11 10 9 10 10 9 9 8 8 8
2 1 4 4 4 1 2 3 6 6 3 7 4 2 1 1 4 9 12 10 6 10 13 15 15 13 13 10 7 5 4 5 7 10 10 11 11 11 12 13 13 12 12 12 12 12 12 12 9 9 11 12 12 11 10 10 10 10 9 8 7 8 7
1 1 2 3 1 2 4 7 8 10 7 2 3 4 1 4 7 9 12 12 9 5 9 12 12 13 14 11 5 4 5 4 3 3 8 9 10 10 11 12 12 12 12 12 12 12 12 10 9 11 11 12 12 10 10 10 10 9 8 7 6 6 6
2 1 1 0 2 1 4 8 11 9 3 2 3 1 4 2 7 10 11 13 13 13 3 4 1 7 4 7 10 10 9 8 8 7 5 6 8 10 11 11 10 10 10 10 11 11 8 8 8 9 10 12 11 10 10 10 10 7 6 6 5 5 6
1 2 1 1 2 3 5 8 9 3 3 5 4 4 3 5 3 6 10 13 12 13 17 10 6 3 4 12 12 9 9 11 8 5 5 7 8 9 10 10 11 11 11 12 12 11 9 9 9 9 11 11 10 10 10 11 8 5 5 5 6 7 7
1 1 1 1 1 3 5 13 3 1 2 4 4 6 3 1 1 6 7 11 12 13 10 6 9 12 12 9 12 12 10 11 12 10 9 8 8 7 9 10 10 12 12 11 11 10 8 8 8 9 12 12 10 10 11 8 6 6 6 5 6 7 7
2 1 0 1 3 6 8 7 4 4 3 5 5 4 3 2 2 4 4 4 4 7 10 10 10 13 14 10 9 11 9 7 5 7 7 8 9 9 8 9 10 12 12 11 11 10 8 8 7 7 9 10 10 11 9 5 6 6 6 6 6 6 6
2 2 2 3 3 4 5 2 2 4 6 4 4 2 3 2 3 3 5 6 7 8 9 9 9 9 8 9 8 9 9 8 8 8 6 6 8 10 11 8 8 10 11 12 11 10 8 9 8 8 8 10 11 10 6 5 6 6 6 6 6 6 6
2 2 3 4 2 4 5 2 1 3 5 5 4 3 1 1 2 4 7 9 11 12 11 11 10 10 10 11 9 8 6 7 5 5 6 6 6 8 10 9 9 10 11 11 11 11 10 9 9 8 8 9 10 7 5 5 5 5 5 6 6 6 5
1 1 2 3 4 5 7 7 3 3 5 5 4 4 3 2 3 6 9 11 12 12 13 13 10 10 9 9 8 7 6 6 4 5 5 5 6 7 8 8 9 9 9 9 10 10 10 8 8 8 9 8 7 5 5 4 5 5 5 5 5 5 5
2 2 3 2 2 3 4 5 6 7 8 7 7 4 4 3 4 5 7 9 11 9 5 9 12 12 13 13 9 8 8 11 9 6 3 4 5 4 6 7 7 7 7 8 9 9 9 7 7 8 7 7 6 5 5 5 5 5 5 5 4 4 5
1 2 2 1 2 2 6 6 6 5 4 4 7 7 7 5 4 4 3 1 5 8 9 7 6 7 9 11 11 9 8 8 8 8 9 5 2 3 5 5 5 6 8 9 9 9 8 6 6 7 7 6 6 6 5 5 4 5 5 5 4 5 4
2 1 1 3 2 1 4 6 6 6 5 3 6 6 8 6 4 3 2 3 2 3 7 10 9 11 10 10 10 11 9 9 9 9 9 9 7 6 5 4 5 7 7 9 10 9 7 6 6 6 6 6 5 5 5 4 4 4 4 4 5 5 4
1 1 1 0 2 4 4 3 4 5 4 6 8 8 7 5 3 3 4 3 3 4 5 5 8 9 10 12 10 9 9 9 9 9 10 10 9 8 7 7 8 8 8 9 9 9 7 6 6 6 6 5 5 5 5 5 5 4 3 3 3 4 4
1 1 2 2 0 2 4 3 2 4 4 5 7 7 6 7 5 3 3 2 3 5 3 1 1 4 8 11 12 12 10 10 10 9 8 9 9 9 8 8 10 10 10 10 10 9 7 7 7 6 6 5 5 5 4 4 5 5 5 4 3 3 3
2 2 2 2 3 5 3 3 3 3 4 4 4 6 6 6 6 5 6 5 4 1 5 6 2 1 3 7 8 9 11 12 10 10 10 9 8 8 9 10 11 11 11 10 9 8 8 8 7 7 6 5 5 4 4 4 4 5 5 4 4 3 2
Wind_Direction
200 195 150 189 169 220 151 173 202 193 97 167 98 91 36 82 210 204 164 262 212 188 207 33 16 38 54 170 187 186 186 186 179 177 178 180 179 174 177 184 183 176 180 183 183 184 188 187 186 188 187 185 188 186 188 192 194 191 192 194 195 196 198
220 353 234 185 207 114 122 203 181 90 33 339 245 211 138 217 223 175 180 227 213 173 235 54 45 44 45 113 173 177 179 180 182 182 179 173 170 174 179 182 162 169 178 182 185 190 191 189 189 190 189 190 188 189 191 190 189 193 196 196 197 195 196
119 101 157 157 144 261 239 315 140 189 165 201 144 168 205 178 212 203 205 256 272 221 229 112 52 35 61 116 153 169 172 183 185 183 181 174 175 173 171 161 164 173 179 183 184 188 194 192 192 192 190 185 185 189 195 196 197 197 196 196 197 200 200
348 197 186 209 173 150 58 103 190 3 232 185 169 208 48 214 189 201 188 180 236 193 156 73 41 64 68 150 166 165 178 186 185 182 185 175 161 151 143 137 135 142 148 168 174 177 185 184 178 176 170 179 186 190 192 202 204 199 198 198 193 195 200
208 184 204 215 179 174 171 205 196 201 288 351 323 77 227 221 172 214 210 205 218 147 128 173 142 209 259 147 164 166 167 161 169 180 171 149 136 131 135 124 133 146 156 168 183 185 176 163 164 168 175 177 183 183 187 195 202 201 197 198 198 200 198
213 31 48 341 294 218 197 190 205 201 162 172 189 199 99 241 201 186 197 229 103 107 181 192 178 160 146 131 154 150 151 160 142 131 136 133 125 128 137 146 153 159 162 167 179 180 174 167 167 171 174 170 180 184 185 185 192 206 210 204 202 198 199
305 325 34 39 263 318 350 237 208 183 202 179 200 216 161 172 130 353 342 269 131 83 161 192 173 149 135 146 145 142 143 147 151 137 128 126 130 137 150 159 160 143 148 152 163 177 184 181 159 138 146 180 187 185 181 181 187 196 207 209 200 192 193
259 209 94 110 97 192 142 84 44 203 210 233 232 231 153 194 142 198 157 235 91 165 212 205 173 122 113 149 139 146 145 152 153 151 144 138 141 151 158 164 165 170 170 146 158 179 186 172 163 173 170 160 179 185 180 181 195 195 196 199 191 190 198
98 112 152 129 127 91 38 2 12 329 294 255 65 88 64 211 168 249 191 227 142 154 189 199 163 133 134 149 152 159 146 135 145 143 143 144 151 163 169 168 170 181 184 172 176 181 178 151 153 167 176 186 202 184 177 184 197 201 195 189 186 192 202
168 162 159 58 343 351 319 42 340 15 323 152 171 194 151 228 136 161 226 169 76 137 182 194 164 147 141 146 140 133 125 123 126 132 139 147 159 172 174 175 177 187 194 190 174 169 155 169 171 176 174 177 183 136 129 144 184 186 184 182 191 216 210
77 46 313 303 263 305 10 349 8 355 356 331 310 41 178 218 148 199 165 151 153 178 196 176 153 162 146 138 134 136 131 130 121 120 128 143 155 167 174 176 173 176 204 217 210 196 179 155 153 138 123 155 172 172 170 185 188 156 140 125 166 213 218
103 119 60 350 257 39 30 21 14 12 6 347 284 208 222 111 125 213 125 169 157 179 186 169 159 160 150 138 134 138 138 134 130 123 120 123 129 141 135 131 157 166 172 197 219 199 194 184 167 165 160 179 184 171 180 170 168 124 132 166 182 194 199
118 104 76 37 71 81 37 33 30 23 8 20 297 328 354 218 216 236 160 174 176 168 175 162 155 156 147 143 142 143 139 127 118 119 121 126 121 116 114 110 109 128 131 131 160 162 166 174 173 170 170 179 185 195 185 158 161 165 164 172 184 188 190
110 54 46 47 57 120 48 33 29 28 29 37 27 34 22 5 355 348 153 165 159 154 160 159 148 154 141 129 132 139 146 143 133 131 132 131 131 126 120 109 99 99 114 100 91 98 90 109 126 137 157 172 186 190 184 174 176 174 167 166 174 179 137
88 29 23 22 39 97 41 25 22 19 21 49 42 49 42 32 57 111 137 139 135 143 146 137 123 136 133 133 145 150 148 144 139 133 126 121 118 119 112 105 98 94 96 95 93 88 89 94 102 104 84 80 78 64 102 184 167 158 163 160 174 160 143
129 38 21 11 7 152 62 27 16 10 9 18 12 7 360 326 142 143 134 146 159 146 145 128 136 140 137 141 148 152 156 149 138 135 130 123 112 107 103 98 94 89 84 84 81 74 71 70 74 77 77 70 58 44 35 28 141 163 153 160 156 132 142
50 26 2 16 357 337 307 22 9 352 15 344 305 55 27 18 163 152 170 192 143 150 147 140 146 146 146 154 160 154 150 143 142 137 131 120 113 109 106 102 98 91 86 82 79 75 68 67 69 68 77 76 68 64 57 39 52 84 97 101 109 130 160
121 4 349 359 307 4 332 48 270 250 47 27 28 25 6 42 338 340 318 143 140 148 146 146 148 150 158 157 137 140 148 149 139 133 128 121 116 114 110 110 105 102 98 94 86 87 88 90 86 77 69 76 73 58 49 52 54 46 64 62 63 65 63
132 359 55 163 264 241 83 92 254 207 105 76 85 91 67 6 347 234 212 153 152 153 142 135 142 131 117 121 132 130 147 151 143 136 128 119 113 110 112 112 110 106 106 103 101 90 77 80 86 83 77 82 81 69 59 57 48 52 55 61 58 54 61
75 197 85 182 202 99 282 222 357 199 203 26 200 145 87 43 358 211 195 160 150 138 129 129 127 125 115 100 87 102 134 149 140 133 126 120 116 115 114 113 109 107 105 105 103 103 105 96 91 93 94 90 83 82 79 73 67 60 58 55 52 51 53
203 151 183 242 357 314 158 193 19 348 10 333 4 2 61 56 130 188 143 144 133 125 122 120 125 123 123 123 99 52 76 113 131 127 119 115 110 110 111 111 111 110 110 103 96 92 87 84 83 78 74 73 76 75 74 76 74 70 63 60 54 53 53
308 172 174 188 180 199 154 23 5 60 308 295 276 262 89 89 132 152 143 146 137 132 132 137 138 137 134 144 146 104 98 111 108 103 108 110 112 111 109 106 105 106 104 101 99 100 98 91 90 89 85 80 73 70 66 66 68 64 61 59 56 58 58
159 173 201 190 203 134 38 334 341 344 333 278 241 254 45 136 159 159 147 135 147 152 154 151 151 156 155 155 145 131 129 135 129 123 123 124 121 120 120 120 116 111 106 105 104 100 99 96 93 90 89 85 79 72 68 67 63 64 61 56 57 68 69
80 166 201 193 342 80 17 334 329 330 333 38 237 249 177 135 177 162 165 153 139 149 165 161 168 171 157 149 124 81 53 42 44 102 128 126 119 114 113 109 109 109 111 108 102 98 95 97 102 97 87 80 78 75 72 70 68 61 55 52 51 54 58
106 244 110 343 143 58 352 326 319 320 329 348 273 198 43 87 168 166 164 159 150 142 155 279 0 339 67 108 125 135 112 65 37 36 59 89 104 110 109 107 109 102 94 91 93 92 86 86 85 84 88 86 83 80 76 72 69 65 61 63 56 51 53
54 15 285 35 18 64 324 307 306 299 146 235 268 18 263 287 209 174 165 159 158 160 169 165 136 216 73 107 127 128 118 121 115 90 69 80 82 87 94 100 103 97 93 93 93 88 83 86 87 88 87 83 82 81 78 74 71 63 63 66 67 63 58
176 231 123 66 163 95 42 319 265 353 312 26 338 303 314 279 260 167 156 157 160 169 159 126 147 162 154 154 143 131 129 136 138 140 136 124 116 110 108 102 103 107 101 93 87 85 80 77 78 85 87 86 83 80 75 70 72 73 67 59 60 66 65
326 123 80 43 18 320 345 346 35 9 19 319 315 297 334 119 166 157 129 78 113 141 134 140 149 157 152 154 126 122 120 121 120 125 130 130 127 118 105 103 103 101 100 97 93 84 78 72 71 73 82 85 82 80 74 65 70 71 69 66 64 60 59
289 14 42 46 340 300 320 295 327 332 335 333 312 285 293 228 142 104 107 91 86 91 101 92 93 107 111 116 122 124 129 132 140 142 136 131 130 122 111 106 106 101 103 104 101 91 82 78 72 73 80 86 82 76 70 66 62 58 56 58 58 58 54
213 252 282 300 308 338 339 350 260 324 352 358 345 340 298 325 101 137 125 115 100 86 77 84 74 80 82 79 74 77 107 133 112 97 109 105 104 109 117 120 108 105 103 101 101 100 92 89 87 80 80 84 86 83 75 65 61 57 52 54 56 50 48
244 162 109 45 23 350 1 347 17 146 30 21 2 26 20 53 122 120 126 126 121 122 136 130 125 110 102 95 105 111 80 45 59 107 119 117 117 118 115 114 116 114 119 116 112 106 100 93 91 90 87 86 90 90 77 69 66 63 61 58 57 56 52
269 8 27 34 23 2 352 358 4 11 13 28 47 50 40 55 69 93 118 136 141 148 137 144 152 162 157 147 162 164 159 150 154 159 151 117 110 111 127 141 135 130 123 118 117 111 106 103 99 95 90 83 73 63 58 51 58 72 71 62 62 57 52
311 267 225 251 256 97 51 41 36 23 7 15 58 60 66 67 77 77 84 67 165 170 166 165 157 160 174 162 163 162 154 154 151 156 145 140 157 161 159 154 148 131 128 124 122 118 117 118 111 101 96 91 85 75 56 43 37 54 68 71 70 68 64
218 262 98 175 228 149 70 42 24 16 9 29 66 65 70 75 76 52 75 74 150 206 176 181 176 174 176 178 173 168 166 165 160 164 153 157 161 183 182 151 135 129 131 130 130 128 126 122 112 106 102 96 91 85 80 66 51 51 54 61 63 60 54
204 115 168 192 51 90 72 49 25 35 21 45 58 53 53 52 61 116 114 89 94 143 169 196 198 182 177 181 178 171 171 172 171 169 154 160 171 176 171 156 152 146 142 139 135 136 136 133 124 121 115 107 97 82 72 64 62 64 60 67 64 67 63
29 36 106 161 332 102 126 115 61 42 12 36 66 54 48 51 52 36 46 57 136 140 137 175 235 201 190 183 181 183 179 174 171 171 166 170 169 170 172 168 157 152 153 154 152 148 146 143 135 130 120 112 102 93 79 66 58 59 54 58 61 52 55
63 81 137 152 93 97 105 93 47 35 27 12 49 40 28 29 28 31 54 51 30 66 155 160 145 64 192 186 195 189 180 182 182 172 165 170 176 176 175 167 162 163 164 163 156 152 153 150 144 139 130 122 113 96 88 75 63 58 48 46 49 47 48